Radiation Dose at Monitoring Post of Fukushima Daini Nuclear Power Station
Date,Time,MP-1(microSv/h),MP-2(microSv/h),MP-3(microSv/h),MP-4(microSv/h),MP-5(microSv/h),MP-6(microSv/h),MP-7(microSv/h),Wind Direction,Wind Velocity(m/s),Rain
2019/05/23,00:00,0.191,0.174,0.290,0.273,0.269,0.144,0.089,-,CALM,No
2019/05/23,00:10,0.190,0.174,0.290,0.272,0.269,0.144,0.089,-,CALM,No
2019/05/23,00:20,0.190,0.173,0.289,0.272,0.269,0.145,0.089,-,CALM,No
2019/05/23,00:30,0.189,0.172,0.288,0.273,0.269,0.145,0.090,-,CALM,No
2019/05/23,00:40,0.191,0.172,0.290,0.272,0.267,0.145,0.089,-,CALM,No
2019/05/23,00:50,0.190,0.173,0.290,0.271,0.270,0.144,0.089,north-northeast,0.6,No
2019/05/23,01:00,0.189,0.173,0.290,0.273,0.268,0.145,0.089,east-northeast,0.6,No
2019/05/23,01:10,0.191,0.173,0.290,0.272,0.268,0.144,0.089,northeast,0.9,No
2019/05/23,01:20,0.190,0.174,0.289,0.273,0.270,0.145,0.090,north-northeast,0.9,No
2019/05/23,01:30,0.190,0.173,0.291,0.274,0.268,0.144,0.090,north-northeast,1.3,No
2019/05/23,01:40,0.190,0.173,0.290,0.273,0.270,0.145,0.091,north-northwest,0.7,No
2019/05/23,01:50,0.191,0.173,0.289,0.272,0.269,0.145,0.090,north-northwest,1.4,No
2019/05/23,02:00,0.192,0.173,0.290,0.273,0.269,0.145,0.090,north-northwest,1.8,No
2019/05/23,02:10,0.191,0.173,0.290,0.273,0.270,0.145,0.089,north-northwest,1.8,No
2019/05/23,02:20,0.190,0.172,0.288,0.271,0.268,0.145,0.090,north,1.2,No
2019/05/23,02:30,0.191,0.174,0.290,0.273,0.268,0.144,0.090,north-northwest,1.8,No
2019/05/23,02:40,0.191,0.173,0.289,0.273,0.269,0.145,0.090,north-northwest,2.5,No
2019/05/23,02:50,0.191,0.172,0.289,0.272,0.268,0.144,0.089,north,2.2,No
2019/05/23,03:00,0.191,0.173,0.290,0.274,0.270,0.145,0.089,north-northeast,2.7,No
2019/05/23,03:10,0.190,0.173,0.290,0.272,0.269,0.145,0.089,north-northeast,3.0,No
2019/05/23,03:20,0.191,0.173,0.290,0.272,0.269,0.144,0.090,north,3.0,No
2019/05/23,03:30,0.190,0.173,0.289,0.272,0.270,0.145,0.090,north,3.3,No
2019/05/23,03:40,0.190,0.174,0.290,0.272,0.269,0.145,0.089,north-northwest,4.0,No
2019/05/23,03:50,0.191,0.174,0.290,0.273,0.269,0.144,0.090,north-northwest,5.1,No
2019/05/23,04:00,0.191,0.174,0.290,0.273,0.270,0.146,0.090,north-northwest,4.8,No
2019/05/23,04:10,0.190,0.174,0.289,0.272,0.269,0.145,0.089,north-northwest,4.6,No
2019/05/23,04:20,0.191,0.174,0.289,0.272,0.270,0.145,0.089,north,4.8,No
2019/05/23,04:30,0.190,0.174,0.290,0.273,0.268,0.145,0.089,north,4.3,No
2019/05/23,04:40,0.191,0.172,0.289,0.272,0.269,0.146,0.089,north,3.9,No
2019/05/23,04:50,0.191,0.173,0.290,0.272,0.270,0.144,0.090,north-northwest,4.4,No
2019/05/23,05:00,0.189,0.174,0.289,0.273,0.268,0.145,0.090,north,4.8,No
2019/05/23,05:10,0.191,0.173,0.289,0.272,0.268,0.145,0.090,north-northwest,4.5,No
2019/05/23,05:20,0.190,0.174,0.290,0.272,0.269,0.145,0.090,north-northwest,4.3,No
2019/05/23,05:30,0.190,0.173,0.290,0.273,0.268,0.145,0.090,north-northwest,4.5,No
2019/05/23,05:40,0.190,0.173,0.290,0.273,0.270,0.145,0.090,north-northwest,4.4,No
2019/05/23,05:50,0.190,0.174,0.290,0.271,0.268,0.145,0.090,north-northwest,5.2,No
2019/05/23,06:00,0.190,0.173,0.290,0.273,0.269,0.145,0.090,north-northwest,5.1,No
2019/05/23,06:10,0.190,0.173,0.289,0.272,0.268,0.145,0.090,north-northwest,4.1,No
2019/05/23,06:20,0.190,0.174,0.290,0.272,0.269,0.145,0.089,north,4.2,No
2019/05/23,06:30,0.191,0.172,0.290,0.272,0.268,0.145,0.089,north,5.4,No
2019/05/23,06:40,0.190,0.173,0.289,0.272,0.269,0.145,0.090,north-northwest,4.4,No
2019/05/23,06:50,0.191,0.173,0.291,0.272,0.269,0.145,0.089,north,4.8,No
2019/05/23,07:00,0.190,0.174,0.288,0.272,0.268,0.145,0.090,north-northwest,4.6,No
2019/05/23,07:10,0.191,0.174,0.290,0.273,0.270,0.144,0.089,north-northwest,4.3,No
2019/05/23,07:20,0.191,0.173,0.288,0.270,0.268,0.146,0.090,north-northwest,3.5,No
2019/05/23,07:30,0.190,0.174,0.288,0.272,0.270,0.144,0.090,north-northwest,3.5,No
2019/05/23,07:40,0.191,0.172,0.290,0.270,0.269,0.145,0.090,north-northwest,2.7,No
2019/05/23,07:50,0.191,0.174,0.286,0.271,0.268,0.145,0.090,north-northwest,2.8,No
2019/05/23,08:00,0.189,0.171,0.289,0.272,0.270,0.145,0.089,north-northwest,2.5,No
2019/05/23,08:10,0.191,0.173,0.288,0.270,0.267,0.144,0.089,north-northwest,2.8,No
2019/05/23,08:20,0.190,0.173,0.287,0.267,0.269,0.145,0.088,north,2.6,No
2019/05/23,08:30,0.190,0.172,0.291,0.272,0.268,0.144,0.090,north,2.4,No
2019/05/23,08:40,0.189,0.174,0.287,0.271,0.267,0.144,0.089,north,2.6,No
2019/05/23,08:50,0.191,0.172,0.290,0.271,0.270,0.144,0.089,north-northeast,3.1,No
2019/05/23,09:00,0.189,0.173,0.290,0.269,0.270,0.145,0.090,north-northeast,4.1,Yes
2019/05/23,09:10,0.190,0.173,0.289,0.268,0.267,0.144,0.090,north-northeast,3.5,No
2019/05/23,09:20,0.190,0.174,0.290,0.268,0.268,0.145,0.089,north-northeast,4.1,No
2019/05/23,09:30,0.189,0.173,0.290,0.274,0.270,0.145,0.090,north-northeast,3.8,No
2019/05/23,09:40,0.190,0.173,0.291,0.271,0.268,0.145,0.089,north-northeast,3.3,No
2019/05/23,09:50,0.189,0.173,0.289,0.269,0.266,0.145,-,north,3.1,No
2019/05/23,10:00,0.190,0.172,0.291,0.269,0.272,0.144,-,north-northeast,3.7,No
2019/05/23,10:10,0.191,0.173,0.288,0.268,0.269,0.144,-,north,3.2,No
2019/05/23,10:20,0.190,0.173,0.292,0.272,0.266,0.146,-,north,2.8,No
2019/05/23,10:30,0.192,0.173,0.290,0.274,0.270,0.145,-,north,2.5,No
2019/05/23,10:40,0.189,0.174,0.287,0.272,0.270,0.145,-,north,2.0,No
2019/05/23,10:50,0.191,0.173,0.285,0.272,0.268,0.144,-,north-northeast,2.4,No
2019/05/23,11:00,0.191,0.174,0.290,0.270,0.265,0.145,-,north-northeast,2.1,No
2019/05/23,11:10,0.189,0.174,0.290,0.271,0.269,0.145,-,northeast,2.3,No
2019/05/23,11:20,0.190,0.173,0.289,0.270,0.270,0.145,-,northeast,3.2,No
2019/05/23,11:30,0.191,0.173,0.285,0.270,0.269,0.144,-,northeast,2.6,No
2019/05/23,11:40,0.189,0.173,0.286,0.275,0.266,0.145,-,east-northeast,2.5,No
2019/05/23,11:50,0.188,0.175,0.291,0.274,0.269,0.145,-,northeast,1.4,No
2019/05/23,12:00,0.191,0.174,0.291,0.273,0.271,0.146,-,northeast,3.3,No
2019/05/23,12:10,0.190,0.172,0.289,0.273,0.270,0.145,-,northeast,2.9,No
2019/05/23,12:20,0.188,0.174,0.286,0.271,0.268,0.146,-,east-northeast,2.8,No
2019/05/23,12:30,0.191,0.173,0.286,0.270,0.267,0.146,-,northeast,2.6,No
2019/05/23,12:40,0.191,0.174,0.289,0.271,0.267,0.145,-,north-northeast,1.9,No
2019/05/23,12:50,0.189,0.174,0.291,0.271,0.270,0.145,-,north-northeast,1.2,No
2019/05/23,13:00,0.188,0.174,0.291,0.270,0.272,0.145,-,east-northeast,0.9,No
2019/05/23,13:10,0.189,0.174,0.290,0.270,0.270,0.146,-,east-northeast,1.6,No
2019/05/23,13:20,0.191,0.172,0.287,0.270,0.268,0.145,-,east,3.0,No
2019/05/23,13:30,0.191,0.172,0.288,0.270,0.268,0.145,-,east,1.9,No
2019/05/23,13:40,0.189,0.174,0.286,0.271,0.268,0.145,-,east-northeast,1.0,No
2019/05/23,13:50,0.189,0.173,0.289,0.272,0.268,0.146,-,east,1.7,No
2019/05/23,14:00,0.191,0.172,0.291,0.273,0.267,0.146,-,east,1.3,No
2019/05/23,14:10,0.191,0.173,0.288,0.272,0.268,0.146,-,east,1.7,No
2019/05/23,14:20,0.190,0.174,0.288,0.272,0.268,0.146,-,-,CALM,No
2019/05/23,14:30,0.189,0.175,0.288,0.273,0.267,0.145,-,east,1.2,No
2019/05/23,14:40,0.190,0.175,0.288,0.274,0.269,0.145,-,-,CALM,No
2019/05/23,14:50,0.190,0.173,0.288,0.277,0.269,0.146,-,-,CALM,No
2019/05/23,15:00,0.191,0.173,0.289,0.274,0.269,0.146,0.090,east-southeast,1.3,No
2019/05/23,15:10,0.191,0.174,0.290,0.275,0.270,0.146,0.089,-,CALM,No
2019/05/23,15:20,0.191,0.175,0.290,0.277,0.268,0.145,0.090,-,CALM,No
2019/05/23,15:30,0.190,0.174,0.289,0.276,0.269,0.145,0.089,southeast,1.0,No
2019/05/23,15:40,0.189,0.174,0.290,0.275,0.269,0.145,0.089,southeast,0.6,No
2019/05/23,15:50,0.189,0.174,0.294,0.278,0.268,0.146,0.091,-,CALM,No
2019/05/23,16:00,0.189,0.175,0.292,0.274,0.268,0.146,0.090,southeast,1.7,No
2019/05/23,16:10,0.192,0.174,0.291,0.276,0.269,0.145,0.090,-,CALM,No
2019/05/23,16:20,0.192,0.175,0.294,0.278,0.269,0.145,0.091,south,0.6,No
2019/05/23,16:30,0.191,0.175,0.294,0.273,0.269,0.145,0.090,south-southeast,1.2,No
2019/05/23,16:40,0.189,0.174,0.292,0.276,0.268,0.145,0.091,south-southeast,2.0,No
2019/05/23,16:50,0.190,0.177,0.293,0.276,0.267,0.147,0.089,south-southeast,1.3,No
2019/05/23,17:00,0.192,0.174,0.292,0.274,0.268,0.145,0.090,south,1.7,No
2019/05/23,17:10,0.191,0.175,0.293,0.276,0.268,0.146,0.090,south,1.2,No
2019/05/23,17:20,0.191,0.175,0.294,0.274,0.270,0.147,0.090,south,3.1,No
2019/05/23,17:30,0.193,0.175,0.292,0.275,0.274,0.146,0.089,south,2.4,No
2019/05/23,17:40,0.192,0.175,0.293,0.274,0.272,0.146,0.090,south,2.6,No
2019/05/23,17:50,0.192,0.175,0.291,0.275,0.269,0.146,0.090,south,4.2,No
2019/05/23,18:00,0.192,0.174,0.294,0.276,0.269,0.146,0.090,south,2.0,No
2019/05/23,18:10,0.190,0.175,0.292,0.275,0.274,0.145,0.090,south,1.9,No
2019/05/23,18:20,0.192,0.175,0.291,0.276,0.270,0.146,0.090,-,CALM,No
2019/05/23,18:30,0.190,0.175,0.294,0.274,0.274,0.146,0.090,south,3.3,No
2019/05/23,18:40,0.191,0.174,0.291,0.276,0.272,0.146,0.090,south,1.6,No
2019/05/23,18:50,0.192,0.175,0.293,0.274,0.272,0.146,0.090,south,3.8,No
2019/05/23,19:00,0.192,0.174,0.294,0.276,0.271,0.145,0.090,-,CALM,No
2019/05/23,19:10,0.191,0.175,0.293,0.274,0.272,0.147,0.090,south,4.9,No
2019/05/23,19:20,0.192,0.174,0.294,0.276,0.272,0.146,0.090,south-southwest,5.1,No
2019/05/23,19:30,0.192,0.175,0.291,0.276,0.273,0.147,0.090,south-southwest,4.9,No
2019/05/23,19:40,0.193,0.176,0.294,0.276,0.272,0.147,0.090,south-southwest,4.6,No
2019/05/23,19:50,0.191,0.176,0.291,0.276,0.272,0.146,0.090,south-southwest,4.5,No
2019/05/23,20:00,0.193,0.176,0.292,0.276,0.271,0.146,0.090,south-southwest,4.3,No
2019/05/23,20:10,0.192,0.175,0.294,0.278,0.272,0.147,0.090,south-southwest,4.6,No
2019/05/23,20:20,0.192,0.175,0.294,0.275,0.271,0.147,0.090,south-southwest,5.2,No
2019/05/23,20:30,0.191,0.175,0.294,0.276,0.273,0.146,0.089,south-southwest,6.0,No
2019/05/23,20:40,0.193,0.176,0.294,0.275,0.270,0.146,0.090,south-southwest,6.2,No
2019/05/23,20:50,0.192,0.176,0.293,0.277,0.273,0.147,0.090,south-southwest,6.2,No
2019/05/23,21:00,0.192,0.175,0.293,0.276,0.271,0.146,0.090,south-southwest,6.0,No
2019/05/23,21:10,0.193,0.176,0.294,0.275,0.272,0.146,0.091,south-southwest,6.2,No
2019/05/23,21:20,0.192,0.175,0.293,0.277,0.271,0.145,0.091,south-southwest,6.0,No
2019/05/23,21:30,0.193,0.175,0.294,0.276,0.272,0.148,0.091,south-southwest,4.8,No
2019/05/23,21:40,0.191,0.176,0.292,0.278,0.271,0.147,0.091,south-southwest,4.1,No
2019/05/23,21:50,0.194,0.176,0.293,0.276,0.272,0.147,0.090,southwest,2.4,No
2019/05/23,22:00,0.191,0.175,0.294,0.276,0.272,0.147,0.091,southwest,1.4,No
2019/05/23,22:10,0.192,0.177,0.293,0.275,0.270,0.145,0.091,south-southwest,1.5,No
2019/05/23,22:20,0.192,0.174,0.294,0.275,0.272,0.147,0.091,southwest,1.4,No
2019/05/23,22:30,0.192,0.175,0.293,0.276,0.270,0.148,0.090,southwest,1.3,No
2019/05/23,22:40,0.192,0.176,0.292,0.275,0.272,0.147,0.091,south-southwest,1.3,No
2019/05/23,22:50,0.192,0.175,0.294,0.277,0.271,0.148,0.090,southwest,1.6,No
2019/05/23,23:00,0.193,0.176,0.293,0.274,0.272,0.147,0.091,southwest,1.5,No
2019/05/23,23:10,0.193,0.176,0.293,0.275,0.272,0.147,0.091,south-southwest,1.9,No
2019/05/23,23:20,0.193,0.175,0.292,0.275,0.271,0.148,0.091,south-southwest,2.0,No
2019/05/23,23:30,0.193,0.176,0.293,0.275,0.273,0.146,0.091,southwest,2.2,No
2019/05/23,23:40,0.191,0.176,0.293,0.276,0.271,0.148,0.090,southwest,3.4,No
2019/05/23,23:50,0.193,0.175,0.294,0.277,0.273,0.147,0.091,southwest,5.0,No
